Location: Unspecified
(0.0000°N, 0.0000°E)
Time: 16:19:02
(UTC+00:00)

PAYLOAD D - Pass Details

Date: 15 June 2023
Orbit: 1411 x 1417 km, 82.5° (Epoch: 21 September)

Event Time Altitude Azimuth Distance (km) Brightness Sun altitude
Rises 19:35:53 0° 205° (SSW) 4,482 10.5 -21.8°
Reaches altitude 10° 19:39:07 10° 215° (SW) 3,504 10.0 -22.5°
Maximum altitude 19:46:10 31° 273° (W) 2,267 9.4 -24.1°
Drops below altitude 10° 19:53:16 10° 332° (NNW) 3,497 10.6 -25.7°
Sets 19:56:32 0° 342° (NNW) 4,472 11.1 -26.4°
